This is the latest recevied weather packets stored in our database for station/object KI4BSX. If no packets are shown the sender has not sent any weather packets the latest 10 day(s).
| Time | Temp. | Humidity | Pressure | Rain* | Wind** | Luminosity | Snow |
|---|---|---|---|---|---|---|---|
| 1777741006 | 18.89° C | 73% | 1015.1 hPa | 0 mm | - | - | - |
| 1777740703 | 18.33° C | 73% | 1015.2 hPa | 0 mm | - | - | - |
| 1777740399 | 18.89° C | 74% | 1015.3 hPa | 0 mm | - | - | - |
| 1777740096 | 17.78° C | 75% | 1015.4 hPa | 0 mm | - | - | - |
| 1777739792 | 17.22° C | 76% | 1015.5 hPa | 0 mm | - | - | - |
| 1777739489 | 16.67° C | 76% | 1015.7 hPa | 0 mm | - | - | - |
| 1777739186 | 16.67° C | 76% | 1015.6 hPa | 0 mm | - | - | - |
| 1777738883 | 16.67° C | 76% | 1015.6 hPa | 0 mm | - | - | - |
| 1777738580 | 16.67° C | 77% | 1015.5 hPa | 0 mm | - | - | - |
| 1777738277 | 17.22° C | 77% | 1015.5 hPa | 0 mm | - | - | - |
| 1777737975 | 17.22° C | 78% | 1015.3 hPa | 0 mm | - | - | - |
| 1777737674 | 16.67° C | 79% | 1015.6 hPa | 0 mm | - | - | - |
| 1777737372 | 16.67° C | 80% | 1015.6 hPa | 0 mm | - | - | - |
| 1777737068 | 16.67° C | 81% | 1015.6 hPa | 0 mm | - | - | - |
| 1777736764 | 16.67° C | 82% | 1015.9 hPa | 0 mm | - | - | - |
| 1777736136 | 16.67° C | 84% | 1015.9 hPa | 0 mm | - | - | - |
| 1777735833 | 16.11° C | 85% | 1016.1 hPa | 0 mm | - | - | - |
| 1777735530 | 16.67° C | 86% | 1015.9 hPa | 0 mm | - | - | - |
| 1777735228 | 16.67° C | 87% | 1015.6 hPa | 0 mm | - | - | - |
| 1777734925 | 16.67° C | 88% | 1015.9 hPa | 0 mm | - | - | - |
| 1777734622 | 16.67° C | 90% | 1015.6 hPa | 0 mm | - | - | - |
| 1777734320 | 16.67° C | 91% | 1015.4 hPa | 0 mm | - | - | - |
| 1777734015 | 16.11° C | 91% | 1015.5 hPa | 0 mm | - | - | - |
| 1777733712 | 16.11° C | 92% | 1015.2 hPa | 0 mm | - | - | - |
| 1777733408 | 16.67° C | 93% | 1015.3 hPa | 0 mm | - | - | - |
* Rain latest hour (hover to see other rain measurements)
** Current wind speed in m/s (hover to see current wind gust speed)